Regional Weather Roundup
Issued by NWS

Home | Current Version | Previous Version | Graphics & Text | Print | Product List | Glossary On
Versions: 1 2 3 4 5 6 7 8 9 10 11 12 13 14 15 16 17 18 19 20 21 22 23 24 25 26 27 28 29 30 31 32 33 34 35 36 37 38 39 40 41 42 43 44 45 46 47 48 49 50
971
ASUS45 KCYS 240310
RWRWY

WYOMING REGIONAL WEATHER ROUNDUP
NATIONAL WEATHER SERVICE CHEYENNE WY
900 PM MDT FRI JUN 23 2017

NOTE:  "FAIR" INDICATES FEW OR NO CLOUDS BELOW 12,000 FEET
WITH NO SIGNIFICANT WEATHER AND/OR OBSTRUCTIONS TO VISIBILITY.

WYZ001-240400-
YELLOWSTONE NATIONAL PARK

CITY           SKY/WX    TMP DP  RH WIND       PRES   REMARKS
LK YELLOWSTONE   N/A     53  27  36 VRB3      30.38R
W YELLOWSTONE  NOT AVBL

$$
WYZ002>013-054>058-071-098>099-240400-
NORTHERN WYOMING

CITY           SKY/WX    TMP DP  RH WIND       PRES   REMARKS
JACKSON        FAIR      59  30  33 N5        30.28R
CODY           NOT AVBL
GREYBULL       NOT AVBL
WORLAND        FAIR      63  37  38 N5        30.22R
SHERIDAN       MOCLDY    57  40  52 NW5       30.26R
BUFFALO        FAIR      55  35  47 NW5       30.30R
GILLETTE       FAIR      54  34  46 NW6       30.26R
NEWCASTLE      FAIR      57  27  30 N5        30.26R

$$
WYZ014>020-022>026-101>103-240400-
CENTRAL WYOMING

CITY           SKY/WX    TMP DP  RH WIND       PRES   REMARKS
BIG PINEY      FAIR      60  29  30 N13       30.29R
PINEDALE       FAIR      59  27  29 NW12      30.29S
DUBOIS         FAIR      54  28  37 SE12G18   30.32R
LANDER         FAIR      61  32  33 NW6       30.26R
RIVERTON       FAIR      62  26  25 NE12      30.27R
CASPER         FAIR      58  30  34 NE12      30.28R
DOUGLAS        FAIR      57  31  37 N9        30.28R

$$
WYZ021-027>030-104>119-240400-
SOUTHERN WYOMING

CITY           SKY/WX    TMP DP  RH WIND       PRES   REMARKS
EVANSTON       FAIR      63  31  30 W8        30.31R
KEMMERER         N/A     61  32  33 NW8       30.32R
FORT BRIDGER   FAIR      67  26  21 NW9       30.32R
ROCK SPRINGS   FAIR      69  21  16 W15       30.23R
DIXON          FAIR      64  27  24 N6        30.24S
RAWLINS        FAIR      62  30  29 NE14      30.26R
SARATOGA       FAIR      61  32  33 N6        30.27R
LARAMIE        FAIR      53  36  52 E10       30.33R
CHEYENNE       CLOUDY    58  43  57 S6        30.31R
TORRINGTON     FAIR      60  27  28 NE13      30.24R
PINE BLUFFS    FAIR      55  45  67 NE6       30.28R

$$




USA.gov is the U.S. government's official web portal to all federal, state and local government web resources and services.